Weather History for Grosse Ile, MI

Change the Weather History Date:

Monday, June 10, 2013

  Actual Average (KDTW) Record (KDTW)
Temperature  
Mean Temperature 66 °F 68 °F  
Max Temperature 69 °F 78 °F 95 °F (1911)
Min Temperature 62 °F 58 °F 38 °F (1980)
Degree Days  
Heating Degree Days 0 1  
Month to date heating degree days 22  
Since 1 June heating degree days 22  
Since 1 July heating degree days 6124  
Cooling Degree Days 0 4  
Month to date cooling degree days 36  
Year to date cooling degree days 84  
Since 1 June cooling degree days 36  
Growing Degree Days 16 (Base 50)    
Moisture  
Dew Point 62 °F    
Average Humidity 90    
Maximum Humidity 94    
Minimum Humidity 82    
Precipitation  
Precipitation 0.77 in 0.12 in 1.65 in (1920)
Month to date precipitation 1.20  
Year to date precipitation 13.74  
Snow  
Snow 0.00 in 0.00 in 0.00 in ()
Month to date snowfall 0.0  
Since 1 June snowfall 0.0  
Since 1 July snowfall 42.5  
Snow Depth -    
Sea Level Pressure  
Sea Level Pressure 29.81 in    
Wind  
Wind Speed 5 mph (ESE)    
Max Wind Speed 9 mph    
Max Gust Speed -    
Visibility 6 miles    
Events Rain    
T = Trace of Precipitation, MM = Missing Value Source: NWS Daily Summary

Daily Weather History Graph

Daily Weather History Graph

Search for Another Location

Airport:

Trip Planner

Search our weather history database for the weather conditions in past years. The results will help you decide how hot, cold, wet, or windy it might be!

Date:

Astronomy

Jun. 10, 2013 Rise Set
Actual Time 5:56 AM EDT 9:08 PM EDT
Civil Twilight 5:22 AM EDT 9:42 PM EDT
Nautical Twilight 4:38 AM EDT 10:26 PM EDT
Astronomical Twilight 3:44 AM EDT 11:19 PM EDT
Moon 7:45 AM EDT (6/10) 10:32 PM EDT (6/10)
Length of Visible Light 16h 20m
Length of Day
15h 11m
Waxing Crescent, 4% of the Moon is Illuminated
Jun 10
Waxing Crescent
Jun 16
First Quarter
Jun 23
Full
Jun 30
Last Quarter
Jul 8
New

Hourly Weather History & Observations

Time (EDT) Temp. Dew Point Humidity Pressure Visibility Wind Dir Wind Speed Gust Speed Precip Events Conditions
12:14 AM 64.4 °F 59.0 °F 83% 29.95 in 10.0 mi ESE 9.2 mph - N/A Rain Light Rain
12:34 AM 64.4 °F 60.8 °F 88% 29.94 in 10.0 mi East 8.1 mph - 0.02 in Rain Light Rain
12:54 AM 64.4 °F 59.0 °F 83% 29.94 in 10.0 mi East 9.2 mph - 0.02 in   Overcast
1:14 AM 62.6 °F 60.8 °F 94% 29.93 in 10.0 mi East 6.9 mph - N/A   Overcast
1:34 AM 62.6 °F 59.0 °F 88% 29.92 in 10.0 mi ENE 8.1 mph - N/A Rain Light Rain
1:54 AM 62.6 °F 59.0 °F 88% 29.92 in 10.0 mi ENE 8.1 mph - N/A   Overcast
2:14 AM 62.6 °F 59.0 °F 88% 29.91 in 10.0 mi ENE 8.1 mph - N/A   Overcast
2:34 AM 62.6 °F 59.0 °F 88% 29.91 in 10.0 mi ENE 5.8 mph - N/A   Overcast
2:54 AM 62.6 °F 57.2 °F 82% 29.91 in 10.0 mi ENE 3.5 mph - N/A   Overcast
3:14 AM 62.6 °F 57.2 °F 82% 29.91 in 10.0 mi East 4.6 mph - N/A   Overcast
3:34 AM 62.6 °F 59.0 °F 88% 29.90 in 7.0 mi NNE 4.6 mph - 0.01 in Rain Rain
3:54 AM 62.6 °F 57.2 °F 82% 29.89 in 7.0 mi NNE 5.8 mph - 0.02 in   Overcast
4:13 AM 62.6 °F 57.2 °F 82% 29.89 in 7.0 mi Calm Calm - N/A   Drizzle
4:34 AM 62.6 °F 57.2 °F 82% 29.88 in 7.0 mi NE 3.5 mph - N/A   Overcast
4:54 AM 62.6 °F 59.0 °F 88% 29.87 in 10.0 mi North 3.5 mph - N/A   Overcast
5:14 AM 62.6 °F 59.0 °F 88% 29.87 in 10.0 mi NE 4.6 mph - N/A   Overcast
5:34 AM 62.6 °F 59.0 °F 88% 29.87 in 10.0 mi NE 4.6 mph - N/A Rain Light Rain
5:55 AM 62.6 °F 59.0 °F 88% 29.86 in 10.0 mi NE 5.8 mph - N/A   Overcast
6:14 AM 62.6 °F 59.0 °F 88% 29.86 in 7.0 mi NE 3.5 mph - N/A Rain Light Rain
6:34 AM 62.6 °F 59.0 °F 88% 29.85 in 10.0 mi NE 3.5 mph - 0.02 in Rain Light Rain
6:54 AM 62.6 °F 60.8 °F 94% 29.85 in 5.0 mi ENE 4.6 mph - 0.03 in Rain Rain
7:14 AM 62.6 °F 60.8 °F 94% 29.85 in 5.0 mi East 4.6 mph - N/A   Light Drizzle
7:34 AM 62.6 °F 60.8 °F 94% 29.84 in 4.0 mi ENE 5.8 mph - N/A   Overcast
7:54 AM 62.6 °F 60.8 °F 94% 29.84 in 4.0 mi ENE 4.6 mph - N/A   Overcast
8:14 AM 64.4 °F 60.8 °F 88% 29.83 in 4.0 mi East 5.8 mph - N/A   Overcast
8:34 AM 64.4 °F 62.6 °F 94% 29.83 in 3.0 mi Calm Calm - N/A Rain Light Rain
8:54 AM 64.4 °F 62.6 °F 94% 29.83 in 2.5 mi Calm Calm - 0.03 in Rain Rain
9:14 AM 66.2 °F 62.6 °F 88% 29.83 in 3.0 mi Calm Calm - 0.03 in Rain Light Rain
9:34 AM 66.2 °F 64.4 °F 94% 29.83 in 4.0 mi SE 4.6 mph - 0.05 in Rain Light Rain
9:54 AM 66.2 °F 64.4 °F 94% 29.82 in 3.0 mi SE 5.8 mph - 0.06 in Rain Light Rain
10:14 AM 66.2 °F 64.4 °F 94% 29.82 in 3.0 mi SE 4.6 mph - 0.01 in Rain Rain
10:34 AM 66.2 °F 64.4 °F 94% 29.81 in 3.0 mi SE 5.8 mph - 0.02 in Rain Rain
10:54 AM 66.2 °F 64.4 °F 94% 29.81 in 3.0 mi SE 6.9 mph - 0.02 in Rain Light Rain
11:14 AM 66.2 °F 64.4 °F 94% 29.80 in 3.0 mi SE 5.8 mph - 0.01 in Rain Light Rain
11:35 AM 66.2 °F 64.4 °F 94% 29.80 in 4.0 mi ESE 8.1 mph - 0.02 in Rain Light Rain
11:54 AM 66.2 °F 64.4 °F 94% 29.80 in 5.0 mi ESE 6.9 mph - 0.02 in Rain Light Rain
12:14 PM 68.0 °F 64.4 °F 88% 29.79 in 7.0 mi ESE 4.6 mph - 0.01 in Rain Light Rain
12:34 PM 69.8 °F 66.2 °F 88% 29.78 in 10.0 mi ESE 3.5 mph - 0.02 in Rain Light Rain
12:54 PM 69.8 °F 66.2 °F 88% 29.79 in 7.0 mi South 3.5 mph - 0.02 in Rain Light Rain
1:15 PM 68.0 °F 64.4 °F 88% 29.78 in 10.0 mi South 3.5 mph - 0.01 in Rain Light Rain
1:34 PM 69.8 °F 66.2 °F 88% 29.78 in 10.0 mi SSE 4.6 mph - 0.01 in   Mostly Cloudy
1:54 PM 69.8 °F 66.2 °F 88% 29.77 in 10.0 mi SSE 4.6 mph - 0.01 in   Mostly Cloudy
2:14 PM 69.8 °F 64.4 °F 83% 29.77 in 7.0 mi South 5.8 mph - N/A   Mostly Cloudy
2:34 PM 66.2 °F 64.4 °F 94% 29.77 in 2.0 mi SSW 8.1 mph - 0.02 in Rain Heavy Rain
2:54 PM 66.2 °F 64.4 °F 94% 29.77 in 2.0 mi SSW 6.9 mph - 0.13 in Rain Heavy Rain
3:14 PM 66.2 °F 64.4 °F 94% 29.77 in 2.0 mi Calm Calm - 0.13 in Rain Heavy Rain
3:34 PM 66.2 °F 64.4 °F 94% 29.77 in 2.0 mi Calm Calm - 0.23 in Rain Heavy Rain
3:54 PM 66.2 °F 64.4 °F 94% 29.77 in 7.0 mi Calm Calm - 0.29 in Rain Rain
4:14 PM 66.2 °F 64.4 °F 94% 29.77 in 10.0 mi Calm Calm - 0.02 in Rain Light Rain
4:34 PM 66.2 °F 64.4 °F 94% 29.76 in 10.0 mi Calm Calm - 0.02 in   Mostly Cloudy
4:54 PM 66.2 °F 64.4 °F 94% 29.75 in 7.0 mi Calm Calm - 0.02 in   Mostly Cloudy
5:14 PM 66.2 °F 62.6 °F 88% 29.75 in 3.0 mi SE 3.5 mph - 0.01 in Rain Rain
5:34 PM 66.2 °F 64.4 °F 94% 29.75 in 2.5 mi Calm Calm - 0.01 in Rain Light Rain
5:54 PM 66.2 °F 64.4 °F 94% 29.74 in 3.0 mi Calm Calm - 0.01 in   Light Drizzle
6:14 PM 66.2 °F 64.4 °F 94% 29.74 in 3.0 mi SSW 5.8 mph - N/A Rain Light Rain
6:34 PM 66.2 °F 62.6 °F 88% 29.74 in 0.8 mi South 3.5 mph - N/A   Light Drizzle
6:54 PM 66.2 °F 62.6 °F 88% 29.74 in 1.0 mi Calm Calm - N/A Rain Light Rain
7:14 PM 66.2 °F 62.6 °F 88% 29.74 in 4.0 mi Calm Calm - N/A   Mostly Cloudy
7:34 PM 66.2 °F 62.6 °F 88% 29.75 in 5.0 mi Calm Calm - N/A   Overcast
7:54 PM 66.2 °F 62.6 °F 88% 29.75 in 4.0 mi Calm Calm - N/A Rain Light Rain
8:14 PM 66.2 °F 62.6 °F 88% 29.75 in 3.0 mi Calm Calm - 0.01 in Rain Light Rain
8:35 PM 64.4 °F 62.6 °F 94% 29.75 in 0.8 mi South 4.6 mph - 0.03 in Rain Rain
8:54 PM 64.4 °F 62.6 °F 94% 29.75 in 0.8 mi South 9.2 mph - 0.06 in Rain Rain
9:14 PM 64.4 °F 62.6 °F 94% 29.75 in 2.5 mi SSE 3.5 mph - 0.02 in Rain Light Rain
9:34 PM 64.4 °F 62.6 °F 94% 29.75 in 3.0 mi Calm Calm - 0.03 in Rain Light Rain
9:54 PM 64.4 °F 62.6 °F 94% 29.75 in 1.5 mi Calm Calm - 0.03 in   Overcast
10:14 PM 64.4 °F 62.6 °F 94% 29.74 in 3.0 mi Calm Calm - N/A   Overcast
10:34 PM 64.4 °F 62.6 °F 94% 29.75 in 3.0 mi Calm Calm - N/A   Mostly Cloudy
10:54 PM 64.4 °F 62.6 °F 94% 29.75 in 2.5 mi Calm Calm - N/A   Overcast
11:14 PM 64.4 °F 62.6 °F 94% 29.75 in 1.0 mi SSW 3.5 mph - N/A   Overcast
11:34 PM 64.4 °F 62.6 °F 94% 29.75 in 1.8 mi Calm Calm - N/A   Mostly Cloudy
11:54 PM 64.4 °F 60.8 °F 88% 29.75 in 1.5 mi South 3.5 mph - N/A   Overcast